Location: B?ezina
(49.8085°N, 13.6013°E)
Time: 06:14:53
(UTC+00:00)

Cosmos 1934 Rocket - Pass Details

Date: 19 May 2025
Orbit: 938 x 997 km, 83.0° (Epoch: 14 June)

Event Time Altitude Azimuth Distance (km) Brightness Sun altitude
Rises 21:23:24 0° 352° (N) 3,667 8.5 -16.9°
Reaches altitude 10° 21:25:57 10° 357° (N) 2,725 7.4 -17.0°
Maximum altitude 21:32:07 58° 76° (ENE) 1,139 4.3 -17.4°
Enters shadow 21:35:33 27° 145° (SE) 1,796 4.8 -17.6°
